CAPE
291 281 180 149 92 116 184 69 31 198 486 489 364 245 176 86 324 645 457 494 815 1151 1264 1139 1041 644 547 839 384 114 20 0 3 5 0 6 4 17 44 53 70 51 131
393 325 278 198 160 97 210 133 82 61 440 278 373 194 111 44 176 548 427 325 833 1128 1353 1285 1048 958 672 897 670 678 209 0 0 7 0 0 0 16 19 50 60 52 53
437 379 327 261 178 121 189 217 116 0 187 317 397 616 417 279 292 512 721 480 949 1283 1504 1098 1073 883 881 945 761 804 362 0 0 16 6 1 0 0 5 45 36 50 29
352 363 315 369 318 197 202 196 179 103 129 419 220 426 447 631 562 425 401 798 1054 1298 1429 1188 1194 1091 1249 1043 913 1052 492 172 0 0 37 19 7 0 0 0 0 12 9
368 284 271 247 363 241 269 207 440 287 268 562 295 285 405 695 887 711 509 789 995 1343 1339 1092 1130 932 1167 924 779 1113 719 584 3 0 4 0 0 1 0 0 0 0 0
378 332 293 237 194 211 226 262 686 424 346 652 535 413 363 388 561 835 723 467 909 1065 1390 1200 1211 1009 1240 1029 1007 752 1299 834 861 7 0 0 13 0 10 0 0 0 0
361 377 307 309 265 358 293 358 452 995 702 674 797 687 620 629 617 730 697 527 691 832 1134 1508 1398 1601 1320 1408 1168 938 1283 949 1168 458 154 0 0 4 0 0 16 6 0
364 365 339 340 311 467 483 357 518 817 1026 913 832 881 859 762 679 837 781 485 741 682 739 1453 1782 1782 1551 1314 1054 1052 1155 1475 779 949 522 80 57 81 117 62 23 31 25
270 204 337 356 311 477 680 572 524 627 1136 1025 1095 1177 1077 989 949 961 659 643 727 1013 882 1045 1530 1590 1630 1417 1323 1219 1031 1635 1626 818 1105 510 42 37 109 41 31 0 0
353 329 462 415 346 513 747 862 815 720 1174 1205 1005 1004 1305 1534 1076 999 937 1135 902 982 1280 1156 1536 1616 1715 1656 1410 1540 1299 1420 1694 1656 828 1020 528 73 33 123 45 17 0
468 485 364 456 465 473 733 1256 1196 1065 1325 1499 1433 1148 913 927 1817 1431 1058 717 1124 1383 1072 1407 1348 1697 1673 1772 1547 1517 1775 1557 1551 1836 1702 1019 766 394 111 30 110 86 25
443 626 529 485 541 541 749 1185 1599 1394 1389 1677 1685 1585 1379 987 929 1814 1811 1215 682 1071 1680 1255 1424 1544 1736 1732 1701 1440 1529 2190 2270 1870 1963 1858 1494 1048 390 61 47 136 118
354 585 713 562 620 630 729 1055 1598 1679 1559 1586 1608 1629 1629 1458 1110 1042 1729 1956 1508 980 1392 1694 1532 1514 1630 1747 1890 1698 1636 1610 1947 2164 2017 2024 1871 1621 1336 631 33 165 166
729 783 856 748 711 725 806 921 1147 1846 1729 1720 1710 1568 1696 1743 1538 1242 1055 1714 2030 1595 1064 1671 2055 1971 1844 1753 1713 1959 1922 1791 1785 1837 2003 1980 2054 2000 1779 1454 915 131 317
793 800 899 808 801 865 895 959 1103 1524 1900 1924 1939 1847 1674 1861 1969 1841 1527 1200 1419 1933 1918 1191 1663 2246 2287 2274 2135 1864 1889 2096 2138 2015 2066 2149 2083 2023 2019 1859 1676 1178 709
946 1092 1055 1002 1047 1037 991 972 1062 1355 1878 2032 2076 2106 2139 1957 2060 2188 2187 1925 1557 1346 1735 2000 1923 1822 2238 2373 2430 2377 2237 2016 1997 2049 1980 1929 2196 2331 2406 2458 2409 2308 1916
1055 1307 1298 1203 1260 1207 1141 1062 1022 1159 1797 2058 2125 2288 2303 2449 2342 2306 2362 2399 2294 2049 1747 1464 1951 2051 2133 2372 2515 2544 2484 2401 2270 2134 2075 2084 1947 2101 2216 2330 2512 2569 2475
834 1189 1382 1391 1427 1341 1273 1167 1128 1166 1275 1722 2211 2332 2560 2553 2635 2617 2521 2526 2525 2659 2579 2250 1964 2152 2092 2154 2552 2731 2698 2564 2488 2482 2471 2410 2321 2240 2170 2250 2168 2289 2479
518 962 1311 1430 1620 1672 1622 1473 1368 1375 1325 1402 1570 2373 2554 2836 2811 2764 2786 2732 2761 2663 2660 2732 2574 2343 2181 2493 2452 2632 2838 2863 2892 2870 2813 2782 2734 2690 2621 2522 2403 2330 2230
211 413 722 1054 1231 1442 1866 1868 1892 1764 1656 1625 1705 1747 2438 2692 2847 2887 2879 2946 2869 2863 2799 2745 2839 2868 2797 2753 2828 2874 2811 2710 2727 2760 2891 2973 3001 3041 3037 2942 2858 2769 2631
1225 1578 2004 1322 770 1076 1116 1997 2076 2109 2019 1903 1800 1865 1955 2262 2676 2823 2951 2967 3096 2975 3003 3032 2974 3069 3147 3168 3176 3179 3300 3280 3220 3155 3101 3018 3003 3001 3014 3016 3028 2945 2842
2138 3066 2771 2736 2686 1589 1314 2289 2366 2413 2321 2368 2454 2448 2546 2301 2498 2694 2831 2985 2988 3178 3224 3231 3352 3370 3334 3466 3548 3607 3639 3636 3638 3425 3328 3485 3258 3117 3055 2999 2942 2959 3038
1854 2700 2744 3024 2981 2616 2473 2560 2768 3001 2720 2384 2472 2537 2847 3139 3119 3034 2985 3002 3181 3184 3315 3437 3503 3613 3748 3804 3833 3858 3852 3885 3945 3899 3763 3704 3602 3551 3558 3545 3476 3377 3308
1042 1742 1994 2191 2414 2645 2894 2700 2907 3042 3103 2931 2945 2907 2565 2831 3009 3245 3404 3432 3510 3617 3650 3732 3829 3886 3940 3939 3898 3906 4009 4092 4117 4111 4132 4116 4094 4076 4043 3979 3880 3780 3752
617 683 1629 1545 1782 1738 1795 2057 2183 2574 3160 3040 3755 4158 3558 3296 3275 3470 3681 3864 3881 3887 3937 4008 4002 3936 3796 3626 3662 3691 3710 3683 3591 3456 3500 3133 2921 2893 2793 2744 2797 2882 2971
4 300 677 1159 1456 1482 1327 1099 1316 1623 1799 2752 3328 4037 4048 3843 3697 3768 3637 4086 4134 4181 4154 4038 3842 3685 3488 3428 3413 3506 3286 3005 2854 2831 2843 2816 2796 2799 2772 2628 2485 2654 2492
CIN
-61 -31 -59 -65 -130 -98 -80 -88 -113 -133 -50 -88 -87 -66 -75 -111 -99 -33 -63 -40 -51 -54 -27 -29 -18 -29 -17 -34 -24 -43 -36 -0 -9 -6 -0 -7 -13 -37 -39 -32 -61 -68 -76
-118 -59 -26 -68 -93 -169 -90 -64 -95 -72 -97 -134 -130 -123 -103 -162 -119 -25 -51 -124 -88 -76 -43 -27 -28 -32 -16 -17 -21 -27 -40 -0 -0 -71 -0 -0 -0 -16 -23 -57 -84 -98 -129
-203 -108 -38 -118 -97 -214 -128 -84 -96 -63 -157 -163 -133 -114 -140 -131 -112 -35 -91 -138 -83 -84 -44 -21 -18 -61 -38 -30 -39 -34 -31 -0 -0 -36 -11 -5 -0 -0 -8 -65 -135 -90 -130
-165 -160 -92 -77 -82 -131 -96 -180 -205 -212 -93 -167 -184 -121 -132 -107 -119 -98 -65 -97 -76 -70 -35 -38 -35 -36 -28 -32 -32 -30 -46 -16 -0 -0 -59 -24 -35 -0 -0 -0 -0 -44 -52
-202 -170 -135 -130 -102 -75 -57 -219 -217 -190 -97 -197 -197 -189 -145 -104 -70 -58 -44 -72 -63 -53 -34 -36 -39 -57 -32 -16 -40 -45 -49 -37 -9 -0 -15 -0 -0 -4 -0 -0 -0 -0 -0
-236 -190 -130 -90 -94 -198 -192 -204 -179 -218 -228 -194 -177 -194 -184 -172 -112 -52 -51 -114 -46 -33 -34 -68 -28 -25 -48 -22 -15 -41 -21 -38 -25 -49 -0 -0 -55 -0 -36 -0 -0 -0 -0
-225 -184 -182 -134 -122 -230 -250 -229 -252 -178 -214 -188 -162 -169 -168 -149 -151 -91 -71 -68 -75 -69 -70 -62 -36 -8 -12 -27 -22 -24 -37 -61 -42 -89 -111 -0 -0 -109 -0 -0 -109 -54 -0
-229 -213 -213 -195 -199 -296 -268 -277 -267 -220 -199 -188 -183 -169 -148 -156 -144 -85 -88 -105 -134 -98 -89 -60 -29 -16 -9 -34 -49 -23 -43 -38 -104 -60 -78 -152 -180 -167 -108 -108 -135 -129 -142
-184 -169 -264 -247 -206 -355 -321 -304 -315 -261 -203 -203 -164 -146 -156 -123 -143 -116 -129 -121 -161 -108 -100 -101 -82 -36 -15 -34 -59 -40 -65 -42 -26 -92 -77 -112 -208 -231 -175 -147 -146 -0 -0
-101 -103 -175 -264 -232 -370 -364 -323 -307 -295 -232 -194 -204 -173 -140 -140 -150 -119 -119 -124 -108 -121 -85 -82 -94 -68 -31 -23 -70 -48 -37 -40 -39 -37 -122 -117 -183 -285 -277 -187 -172 -225 -0
-128 -103 -59 -273 -237 -275 -351 -310 -292 -259 -206 -173 -185 -212 -202 -194 -88 -103 -124 -154 -130 -69 -96 -58 -70 -89 -70 -37 -29 -83 -62 -42 -49 -41 -51 -106 -174 -264 -289 -199 -192 -184 -265
-191 -118 -39 -288 -229 -58 -269 -320 -283 -246 -262 -245 -225 -216 -208 -217 -242 -111 -102 -121 -192 -155 -31 -140 -96 -94 -99 -79 -41 -85 -97 -25 -10 -40 -46 -60 -74 -141 -281 -344 -213 -268 -227
-91 -181 -58 -195 -39 -60 -62 -360 -303 -279 -280 -268 -258 -237 -207 -212 -247 -296 -168 -109 -111 -149 -112 -43 -109 -96 -117 -103 -102 -95 -81 -104 -77 -43 -52 -74 -62 -84 -121 -248 -472 -359 -230
-211 -194 -148 -103 -52 -70 -63 -384 -348 -293 -287 -281 -285 -294 -268 -248 -272 -293 -324 -196 -109 -122 -216 -137 -83 -60 -81 -82 -121 -110 -107 -111 -111 -102 -68 -73 -75 -81 -80 -85 -169 -394 -304
-190 -179 -118 -67 -196 -114 -80 -399 -376 -382 -344 -330 -320 -336 -337 -289 -256 -269 -293 -346 -280 -190 -147 -243 -184 -115 -74 -50 -58 -137 -130 -111 -96 -95 -98 -85 -89 -97 -94 -86 -92 -104 -192
-177 -190 -225 -236 -153 -160 -151 -120 -369 -414 -406 -387 -388 -353 -333 -351 -334 -291 -283 -284 -317 -357 -282 -209 -232 -228 -185 -142 -100 -69 -62 -129 -125 -130 -133 -129 -114 -106 -84 -58 -56 -62 -54
-162 -181 -184 -162 -224 -211 -161 -112 -119 -387 -424 -440 -415 -383 -372 -341 -363 -351 -304 -286 -298 -305 -333 -379 -294 -274 -249 -187 -148 -125 -108 -100 -110 -148 -151 -152 -166 -165 -142 -111 -62 -43 -63
-116 -127 -131 -157 -192 -193 -181 -165 -142 -112 -366 -382 -399 -394 -349 -350 -331 -316 -310 -298 -291 -271 -287 -314 -321 -323 -323 -264 -175 -123 -105 -107 -132 -141 -139 -149 -174 -192 -182 -138 -136 -99 -79
-53 -59 -86 -95 -132 -152 -137 -108 -82 -89 -268 -369 -385 -413 -389 -347 -333 -335 -320 -313 -289 -289 -300 -297 -298 -315 -327 -248 -208 -144 -95 -85 -98 -116 -141 -159 -168 -158 -117 -101 -99 -128 -192
-63 -21 -32 -53 -40 -44 -101 -99 -74 -86 -96 -101 -350 -368 -363 -352 -353 -343 -333 -326 -291 -296 -271 -273 -261 -254 -243 -209 -186 -136 -115 -152 -153 -154 -177 -166 -153 -119 -94 -70 -57 -110 -204
-368 -277 -271 -360 -28 -42 -37 -151 -124 -116 -84 -190 -107 -349 -326 -426 -361 -337 -317 -303 -280 -266 -259 -243 -232 -222 -195 -162 -134 -103 -82 -116 -115 -134 -158 -157 -144 -124 -92 -79 -86 -121 -72
-232 -170 -241 -242 -277 -361 -199 -266 -236 -232 -116 -180 -229 -393 -396 -352 -350 -321 -309 -277 -256 -237 -231 -217 -194 -173 -150 -105 -77 -65 -74 -88 -86 -121 -141 -103 -110 -111 -96 -85 -104 -86 -52
-231 -152 -168 -144 -162 -209 -255 -237 -225 -229 -268 -256 -192 -190 -212 -246 -188 -285 -219 -170 -231 -213 -193 -173 -163 -133 -79 -73 -82 -87 -79 -58 -53 -55 -63 -58 -47 -41 -48 -42 -41 -25 -9
-187 -183 -181 -170 -165 -153 -133 -156 -146 -150 -157 -191 -226 -188 -291 -311 -243 -254 -232 -165 -190 -145 -122 -103 -83 -86 -81 -78 -80 -75 -48 -33 -29 -23 -14 -13 -4 -2 -5 -6 -16 -7 -2
-172 -219 -178 -199 -251 -244 -175 -137 -114 -109 -92 -138 -134 -126 -185 -220 -198 -170 -134 -135 -138 -100 -72 -61 -57 -66 -67 -80 -74 -61 -47 -38 -29 -24 -17 -33 -34 -39 -40 -39 -68 -66 -60
-251 -321 -268 -153 -227 -257 -295 -406 -361 -302 -268 -107 -92 -66 -91 -105 -106 -75 -61 -33 -44 -30 -29 -41 -50 -50 -53 -56 -52 -46 -48 -48 -38 -34 -33 -34 -36 -37 -41 -53 -60 -39 -45
Wind_Speed
24 16 9 2 nan 5 2 nan nan 7 10 14 13 13 12 nan 9 7 5 9 9 9 10 11 13 14 15 15 14 15 nan nan nan nan nan nan nan nan nan nan nan nan 12
26 19 15 2 3 nan 2 3 nan nan 11 11 11 13 10 nan 8 5 9 7 8 7 8 10 13 14 15 13 16 13 13 nan nan nan nan nan nan nan nan nan nan nan nan
25 22 19 10 4 4 1 1 4 nan 5 8 12 14 13 13 9 6 6 6 6 6 8 11 11 13 14 15 14 13 10 nan nan nan nan nan nan nan nan nan nan nan nan
25 25 16 15 6 2 4 3 3 4 6 6 7 5 5 4 6 5 4 4 3 5 7 10 11 11 11 13 13 13 14 12 nan nan nan nan nan nan nan nan nan nan nan
25 20 23 14 8 1 1 3 5 4 5 5 4 3 4 3 6 6 3 3 4 6 8 9 10 10 9 11 12 13 13 11 nan nan nan nan nan nan nan nan nan nan nan
20 21 18 13 8 5 1 2 7 5 5 5 3 2 2 3 4 6 4 4 2 4 5 7 8 10 11 11 11 11 10 10 9 nan nan nan nan nan nan nan nan nan nan
14 21 16 11 7 8 4 2 4 4 4 3 4 3 2 3 1 4 5 5 4 2 4 5 8 8 9 11 12 11 9 8 8 9 9 nan nan nan nan nan nan nan nan
11 17 21 17 10 8 6 4 5 3 2 3 3 3 3 7 6 4 5 5 4 3 5 7 7 10 10 9 10 10 10 7 6 11 10 nan nan nan 13 nan nan nan nan
12 17 17 19 8 6 6 5 2 2 3 3 5 5 6 5 6 5 6 9 8 7 7 8 8 8 10 11 11 9 11 11 10 9 12 11 nan nan 9 nan nan nan nan
8 9 14 19 11 3 6 5 4 3 3 4 6 8 7 7 6 7 6 9 9 9 9 10 9 9 10 11 11 9 10 11 10 10 14 15 15 nan nan 13 nan nan nan
12 9 14 16 19 3 4 5 4 8 3 4 4 8 8 7 9 7 5 4 8 11 12 12 13 10 7 8 10 9 11 13 11 12 15 16 17 18 20 nan 16 nan nan
9 12 12 14 17 6 1 3 4 4 1 3 5 7 9 8 6 4 2 4 5 6 6 6 7 6 6 6 8 10 11 12 12 12 13 16 15 17 19 nan nan 21 19
10 8 12 12 13 9 3 0 1 2 3 5 6 7 7 5 2 4 3 2 3 6 2 2 2 3 5 6 8 9 10 11 11 12 14 17 15 13 16 20 nan 20 21
21 20 10 8 11 14 6 2 3 4 4 5 5 5 4 4 5 5 5 5 4 4 1 1 2 4 7 9 12 14 15 15 16 17 16 17 20 20 17 15 17 20 20
26 24 22 16 12 12 9 3 5 6 6 5 4 3 4 4 5 2 6 6 8 5 5 5 4 5 6 7 13 15 16 17 20 18 18 19 20 23 21 20 20 23 22
22 26 25 22 16 9 10 7 5 6 7 4 2 3 3 6 6 4 4 6 9 8 6 6 6 7 6 10 14 12 12 13 14 15 16 16 18 20 23 25 25 26 23
20 23 28 25 21 20 14 9 8 11 8 5 6 5 2 5 6 4 5 5 6 6 8 9 8 9 6 5 10 11 6 6 7 9 8 9 10 15 17 21 24 26 30
38 32 29 28 30 25 20 18 18 13 9 7 5 5 5 8 5 4 5 4 2 6 5 7 8 3 2 6 7 9 9 6 4 6 9 10 10 12 15 16 22 23 24
36 36 33 26 22 18 21 15 8 12 12 10 6 4 5 4 3 2 2 3 2 1 4 6 7 5 4 13 14 17 11 6 7 8 9 12 14 17 24 22 23 26 24
40 39 34 28 24 23 19 15 12 13 8 14 10 12 12 9 8 7 4 6 5 3 6 7 9 12 11 18 16 17 17 12 14 13 12 18 17 22 28 27 28 27 26
45 39 41 35 28 26 32 29 24 9 6 14 20 21 16 11 10 13 15 13 12 13 11 10 11 12 16 18 25 25 24 20 18 19 19 22 29 28 31 35 31 29 28
50 48 43 42 40 37 35 38 39 34 28 29 27 23 20 21 22 21 21 20 20 19 18 19 20 21 23 25 27 29 28 26 25 24 26 27 30 33 35 39 36 35 36
53 50 48 46 44 43 42 41 35 35 34 32 28 26 26 29 30 29 28 29 27 28 29 30 26 28 32 29 27 29 29 28 29 31 32 28 31 34 35 37 39 42 45
54 51 50 49 41 37 36 33 32 33 37 39 35 34 36 38 40 40 41 40 37 36 36 36 34 33 34 33 36 33 36 34 37 32 31 33 35 38 40 46 47 50 52
54 55 51 44 42 41 41 38 34 33 31 33 33 34 38 41 49 54 50 44 43 38 36 34 35 36 38 39 41 42 41 41 43 40 41 42 45 44 47 50 51 53 57
nan 55 46 39 38 41 42 39 37 37 33 31 30 30 38 43 46 47 49 51 49 47 46 46 43 41 49 47 47 47 47 42 42 47 46 48 51 50 51 52 55 57 57
Wind_Direction
7 35 24 64 nan 215 352 nan nan 169 164 165 158 147 141 nan 150 139 93 84 74 42 36 53 51 47 45 63 60 63 nan nan nan nan nan nan nan nan nan nan nan nan 53
1 18 42 46 118 nan 304 76 nan nan 168 170 160 154 157 nan 157 152 103 80 84 55 37 38 46 51 53 41 49 54 68 nan nan nan nan nan nan nan nan nan nan nan nan
348 6 37 29 119 203 247 172 141 nan 171 172 173 169 171 174 164 158 130 101 84 56 32 32 30 37 44 44 45 38 47 nan nan nan nan nan nan nan nan nan nan nan nan
343 355 24 37 50 155 227 229 169 161 177 184 168 154 153 136 142 170 153 116 78 61 37 33 36 39 33 33 34 32 40 38 nan nan nan nan nan nan nan nan nan nan nan
342 345 1 26 33 358 142 262 261 199 200 205 211 197 156 160 206 192 159 150 109 60 38 30 31 32 28 33 27 29 28 24 nan nan nan nan nan nan nan nan nan nan nan
4 8 11 4 346 334 313 291 283 257 218 230 230 282 347 199 220 195 177 192 126 73 55 30 20 28 23 17 19 29 24 13 1 nan nan nan nan nan nan nan nan nan nan
24 31 15 32 345 331 352 348 330 278 234 237 231 253 264 242 187 192 206 235 238 254 55 17 5 13 3 10 7 6 12 12 341 343 5 nan nan nan nan nan nan nan nan
29 37 12 20 4 334 333 20 21 4 246 211 221 229 210 190 168 192 196 226 256 281 327 352 343 344 338 335 344 348 356 347 348 340 345 nan nan nan 359 nan nan nan nan
48 21 24 10 35 329 316 336 330 329 295 185 196 179 179 150 156 162 205 230 245 265 307 331 331 323 316 317 324 333 336 339 337 339 331 341 nan nan 16 nan nan nan nan
23 52 33 7 11 326 307 307 316 334 264 238 181 165 176 168 165 193 217 247 275 289 305 305 310 298 306 309 316 320 313 323 327 323 329 341 348 nan nan 34 nan nan nan
356 347 61 30 356 306 282 276 309 294 257 281 192 152 158 167 196 213 238 290 278 287 288 283 287 299 308 316 310 313 316 323 331 324 335 343 350 360 3 nan 30 nan nan
30 19 25 15 338 351 245 304 319 331 202 211 185 167 182 191 207 233 304 324 343 297 323 307 317 320 325 317 315 318 323 330 333 342 342 356 349 356 354 nan nan 4 2
328 351 310 336 330 360 91 12 317 35 182 187 180 194 187 205 103 50 42 13 17 54 345 329 317 14 15 358 358 1 4 355 359 355 357 3 1 360 343 341 nan 349 345
292 282 283 301 315 341 32 75 206 218 237 221 204 201 182 130 80 94 71 45 58 81 69 242 9 54 43 37 41 46 48 47 44 41 27 21 12 9 355 336 338 332 334
285 292 287 286 302 320 346 174 185 212 242 240 249 213 172 116 99 90 78 60 49 51 51 68 84 62 63 67 57 50 46 58 60 48 37 36 29 21 5 346 344 331 331
279 285 295 289 284 294 314 314 221 201 236 238 250 234 160 95 108 97 48 47 47 37 30 71 79 76 87 64 34 36 52 67 57 58 47 39 27 25 16 1 353 344 344
303 271 272 279 276 284 279 305 314 238 199 176 196 165 154 92 95 89 67 53 43 36 40 50 82 86 84 38 28 27 45 56 50 49 37 33 16 5 357 352 348 346 347
244 239 248 236 236 240 243 247 248 261 233 197 205 177 103 105 119 115 111 112 62 39 29 29 33 51 120 294 330 341 32 50 22 4 355 1 355 351 336 332 325 334 343
242 243 240 243 250 248 249 241 259 254 240 212 196 221 131 162 156 129 142 177 218 324 11 354 348 0 289 289 298 296 301 327 352 333 335 342 345 334 322 324 329 332 346
229 232 230 228 220 205 217 253 264 251 257 237 232 214 208 203 181 182 194 217 208 256 286 316 317 327 314 281 293 294 283 305 303 315 334 329 328 314 317 315 316 327 332
224 223 231 232 229 223 216 212 207 216 252 228 221 222 222 231 229 231 225 231 248 253 266 280 287 300 303 307 307 298 291 287 287 298 303 302 313 319 314 319 319 329 313
223 223 235 233 230 224 222 220 218 197 208 226 229 226 234 238 235 251 239 240 241 240 251 255 258 263 274 295 299 305 317 306 297 293 287 292 307 314 317 314 322 321 314
217 221 222 228 231 232 231 229 215 210 213 224 222 227 231 236 242 244 244 243 245 248 248 247 252 256 263 274 294 299 304 307 289 284 285 292 294 300 305 314 318 318 309
213 219 223 226 227 232 240 238 222 212 210 210 211 220 226 234 236 236 239 242 244 246 247 249 252 254 262 269 267 275 274 277 276 278 278 287 293 296 300 297 302 306 308
205 209 216 220 222 224 232 236 230 226 219 218 218 225 232 240 244 241 239 246 252 259 261 258 259 260 263 266 268 271 273 272 273 278 283 287 289 293 295 298 302 303 306
nan 204 206 215 221 221 222 221 228 237 234 225 223 225 231 235 247 252 252 246 248 252 256 258 263 255 258 264 264 266 267 270 280 280 281 282 285 290 292 296 294 294 298